Regional Weather Roundup
Issued by NWS Sterling, VA

Home | Current Version | Previous Version | Graphics & Text | Print | Product List | Glossary On
Versions: 1 2 3 4 5 6 7 8 9 10 11 12 13 14 15 16 17 18 19 20 21 22 23 24 25 26 27 28 29 30 31 32 33 34 35 36 37 38 39 40 41 42 43 44 45 46 47 48 49 50
000
ASUS41 KLWX 300710
RWRLWX

REGIONAL WEATHER ROUNDUP
NATIONAL WEATHER SERVICE BALTIMORE MD/WASHINGTON DC
300 AM EDT TUE SEP 30 2014

Note: "FAIR" indicates few or no clouds below 12,000 feet
with no significant weather and/or obstructions to visibility.
 TC=TEMPERATURE CELSIUS

 * =Non NWS site. Station does not report precipitation (e.g. rain,
    snow, etc.), thunder, or fog.

DCZ001-MDZ009-015-VAZ040>042-051-053>054-300800-
WASHINGTON METRO

CITY           SKY/WX    TMP DP  RH WIND       PRES   REMARKS
WASHINGTON NAT CLOUDY    68  63  84 S8        29.92F
DULLES         FOG       63  63 100 SW5       29.92F VSB 3/4
ANDREWS AFB    FOG       63  63 100 S6        29.90F VSB 1/2
QUANTICO       CLOUDY    64  62  93 W6        29.92F
COLLEGE PARK*  CLOUDY    68  64  88 CALM      29.90F
LEESBURG*      FOG       64  64 100 SW3       29.92F VSB 3/4
MANASSAS*      CLOUDY    64  64 100 SW3       29.91F
GAITHERSBURG*  CLOUDY    64  63  94 CALM      29.94F

$$

MDZ006>007-011-014-300800-
BALTIMORE METRO

CITY           SKY/WX    TMP DP  RH WIND       PRES   REMARKS
BWI AIRPORT    CLOUDY    64  63  94 CALM      29.90F FOG
MD SCIENCE CTR   N/A     66  64  93 MISG      29.91F
MARTIN STATE   CLOUDY    66  64  94 CALM      29.92F
ANNAPOLIS        N/A     66  63  90 MISG      29.90F
FORT MEADE*    CLOUDY    61  61 100 CALM      29.93F

$$

MDZ012-015-019>023-300800-
MARYLAND EASTERN SHORE

CITY           SKY/WX    TMP DP  RH WIND       PRES   REMARKS
OCEAN CITY     LGT RAIN N/A N/A N/A CALM      29.93F
SALISBURY      CLOUDY    66  62  87 NW5       29.92F
BAY BRIDGE AP*   N/A     66  64  94 S3        29.91F
CAMBRIDGE*     CLOUDY    63  61  94 CALM      29.92F VSB 1
EASTON*        CLOUDY    65  65 100 SE3       29.95F FOG

$$

MDZ017>025-300800-
SOUTHERN MARYLAND

CITY           SKY/WX    TMP DP  RH WIND       PRES   REMARKS
PATUXENT RIVER MOCLDY    61  60  97 CALM      29.91F FOG
ST INIGOES     CLOUDY    63  60  90 CALM      29.91F
LEONARDTOWN*   CLOUDY    61  59  94 CALM      29.94F VSB 1

$$

MDZ003>005-300800-
NORTH CENTRAL MARYLAND

CITY           SKY/WX    TMP DP  RH WIND       PRES   REMARKS
FREDERICK*     CLOUDY    64  64 100 CALM      29.94F
HAGERSTOWN APT PTCLDY    64  61  90 CALM      29.91F
WESTMINSTER*   CLOUDY    64  63  94 CALM      29.92F

$$

MDZ501>502-300800-
WESTERN MARYLAND

CITY           SKY/WX    TMP DP  RH WIND       PRES   REMARKS
OAKLAND*       CLEAR     55 N/A N/A SW6       29.98F
CUMBERLAND*    NOT AVBL

$$

VAZ025>031-300800-
SHENANDOAH VALLEY

CITY           SKY/WX    TMP DP  RH WIND       PRES   REMARKS
WINCHESTER*    FOG       59  59 100 CALM      29.92S VSB 3/4
STAUNTON*      CLEAR     54  51  92 CALM      29.96S

$$

WVZ021-048>050-054>055-300800-
EASTERN WEST VIRGINIA PANHANDLE

CITY           SKY/WX    TMP DP  RH WIND       PRES   REMARKS
MARTINSBURG    CLEAR     61  57  87 CALM      29.91F
PETERSBURG*    CLEAR    N/A N/A N/A CALM      29.94F HAZE

$$

VAZ036>039-050-300800-
CENTRAL FOOTHILLS

CITY           SKY/WX    TMP DP  RH WIND       PRES   REMARKS
CHARLOTTESVILL FOG       64  63  96 S5        29.92F VSB 1/4
ORANGE*        CLOUDY    63  63 100 S3        29.93F FOG

$$

VAZ055>057-300800-
NORTH AND CENTRAL PIEDMONT

CITY           SKY/WX    TMP DP  RH WIND       PRES   REMARKS
FREDERICKSBRG* CLOUDY    65  65 100 W3        29.91F FOG
STAFFORD*      FOG       62  62 100 CALM      29.96F VSB 1/4

$$

NCZ024-NYZ072-PAZ021-071-VAZ022-071-300800-
OTHER REGIONAL OBSERVATIONS

CITY           SKY/WX    TMP DP  RH WIND       PRES   REMARKS
NEW YORK CITY  CLOUDY    69  56  62 W3        29.95F
PHILADELPHIA   CLOUDY    66  62  87 CALM      29.93F
PITTSBURGH     CLEAR     56  54  93 CALM      29.90S
ROANOKE        CLEAR     59  58  96 CALM      29.96F
RICHMOND       CLOUDY    65  63  93 CALM      29.92F FOG
RALEIGH        FOG       63  62  97 CALM      29.95F VSB 1/16

$$

ANZ530>537-300800-
MARINE OBSERVATIONS

STATION/POSITION TIME  TEMP    WIND        PRES
                       AIR SEA DIR/SP/G
                 (UTC) (F)     (DEG/KT/KT) (MB)
THOMAS PT LIGHT  0700   67 71  200/  9/ 10 1013.6F
BALT KEY BRIDGE  0700   66      CALM  /  1 1012.8F
COVE POINT       0700   65     230/  4/  4 1013.1S
LEWISETTA        0700   65 70  230/  2/  3 1012.7F
SOLOMONS ISLAND  0700      72                N/A
PINEY POINT      0700          230/  5/  6   N/A

$$




USA.gov is the U.S. government's official web portal to all federal, state and local government web resources and services.